TimePDT,TemperatureF,Dew PointF,Humidity,Sea Level PressureIn,VisibilityMPH,Wind Direction,Wind SpeedMPH,Gust SpeedMPH,PrecipitationIn,Events,Conditions,WindDirDegrees,DateUTC
12:10 AM,53.6,44.6,72,30.00,10.0,Calm,Calm,-,N/A,,Scattered Clouds,0,2013-03-27 07:10:00
12:35 AM,53.6,44.6,72,30.00,10.0,Calm,Calm,-,N/A,,Scattered Clouds,0,2013-03-27 07:35:00
12:50 AM,53.6,46.4,77,30.00,10.0,Calm,Calm,-,N/A,,Partly Cloudy,0,2013-03-27 07:50:00
1:10 AM,51.8,44.6,76,30.00,10.0,Calm,Calm,-,N/A,,Clear,0,2013-03-27 08:10:00
1:35 AM,51.8,44.6,76,29.99,10.0,Calm,Calm,-,N/A,,Clear,0,2013-03-27 08:35:00
1:50 AM,51.8,44.6,76,29.99,10.0,Calm,Calm,-,N/A,,Clear,0,2013-03-27 08:50:00
2:10 AM,51.8,44.6,76,29.99,10.0,Calm,Calm,-,N/A,,Scattered Clouds,0,2013-03-27 09:10:00
2:30 AM,51.8,46.4,82,29.98,10.0,Calm,Calm,-,N/A,,Mostly Cloudy,0,2013-03-27 09:30:00
2:50 AM,50.0,44.6,82,29.98,10.0,Calm,Calm,-,N/A,,Mostly Cloudy,0,2013-03-27 09:50:00
3:10 AM,50.0,44.6,82,29.98,10.0,Calm,Calm,-,N/A,,Overcast,0,2013-03-27 10:10:00
3:35 AM,51.8,46.4,82,29.98,10.0,Calm,Calm,-,N/A,,Overcast,0,2013-03-27 10:35:00
3:50 AM,51.8,46.4,82,29.98,10.0,Calm,Calm,-,N/A,,Overcast,0,2013-03-27 10:50:00
4:10 AM,50.0,46.4,87,29.97,10.0,SSE,3.5,-,N/A,,Overcast,160,2013-03-27 11:10:00
4:35 AM,51.8,46.4,82,29.97,10.0,South,3.5,-,N/A,,Overcast,190,2013-03-27 11:35:00
4:50 AM,51.8,46.4,82,29.97,10.0,South,3.5,-,N/A,,Overcast,180,2013-03-27 11:50:00
5:10 AM,51.8,46.4,82,29.97,10.0,South,3.5,-,N/A,,Overcast,190,2013-03-27 12:10:00
5:35 AM,53.6,46.4,77,29.97,10.0,SSE,3.5,-,N/A,,Overcast,160,2013-03-27 12:35:00
5:50 AM,53.6,46.4,77,29.98,10.0,Calm,Calm,-,N/A,,Overcast,0,2013-03-27 12:50:00
6:10 AM,53.6,46.4,77,29.97,10.0,SSE,3.5,-,N/A,,Overcast,160,2013-03-27 13:10:00
6:30 AM,53.6,46.4,77,29.97,10.0,Calm,Calm,-,N/A,,Overcast,0,2013-03-27 13:30:00
6:47 AM,53.6,46.4,77,29.97,10.0,SSE,3.5,-,N/A,,Overcast,150,2013-03-27 13:47:00
6:50 AM,53.6,46.4,77,29.97,10.0,SSE,3.5,-,N/A,,Overcast,150,2013-03-27 13:50:00
7:47 AM,53.6,46.4,77,29.98,10.0,SSE,3.5,-,N/A,,Overcast,160,2013-03-27 14:47:00
8:49 AM,55.4,46.4,72,29.99,10.0,ESE,3.5,-,N/A,,Mostly Cloudy,110,2013-03-27 15:49:00
9:47 AM,57.2,48.2,72,29.99,10.0,ENE,4.6,-,N/A,,Mostly Cloudy,60,2013-03-27 16:47:00
10:47 AM,59.0,48.2,67,30.00,10.0,East,3.5,-,N/A,,Mostly Cloudy,80,2013-03-27 17:47:00
11:49 AM,59.0,50.0,72,30.00,10.0,NE,5.8,-,N/A,,Overcast,40,2013-03-27 18:49:00
12:47 PM,62.6,50.0,63,30.00,10.0,NNW,5.8,-,N/A,,Mostly Cloudy,340,2013-03-27 19:47:00
1:49 PM,62.6,51.8,68,29.99,10.0,North,12.7,17.3,N/A,,Mostly Cloudy,10,2013-03-27 20:49:00
2:55 PM,66.2,50.0,56,29.99,10.0,SSW,12.7,-,N/A,,Mostly Cloudy,210,2013-03-27 21:55:00
3:58 PM,64.4,51.8,64,29.98,10.0,WSW,15.0,20.7,N/A,,Mostly Cloudy,250,2013-03-27 22:58:00
4:47 PM,62.6,51.8,68,29.98,10.0,WSW,15.0,19.6,N/A,,Mostly Cloudy,240,2013-03-27 23:47:00
5:47 PM,62.6,51.8,68,29.98,10.0,WSW,10.4,-,N/A,,Mostly Cloudy,250,2013-03-28 00:47:00
6:47 PM,57.2,51.8,82,29.99,10.0,West,5.8,-,N/A,,Mostly Cloudy,280,2013-03-28 01:47:00
7:50 PM,57.2,50.0,77,30.00,10.0,WSW,9.2,-,N/A,,Mostly Cloudy,250,2013-03-28 02:50:00
8:47 PM,57.2,50.0,77,30.01,10.0,NW,5.8,-,N/A,,Mostly Cloudy,310,2013-03-28 03:47:00
9:10 PM,57.2,51.8,82,30.02,10.0,WNW,6.9,-,N/A,,Overcast,300,2013-03-28 04:10:00
9:35 PM,57.2,51.8,82,30.02,10.0,NNW,3.5,-,N/A,,Scattered Clouds,340,2013-03-28 04:35:00
9:50 PM,55.4,51.8,88,30.02,10.0,North,3.5,-,N/A,,Mostly Cloudy,360,2013-03-28 04:50:00
10:15 PM,55.4,51.8,88,30.03,10.0,NW,3.5,-,N/A,,Mostly Cloudy,310,2013-03-28 05:15:00
10:30 PM,55.4,51.8,88,30.03,10.0,NW,3.5,-,N/A,,Mostly Cloudy,320,2013-03-28 05:30:00
10:50 PM,55.4,51.8,88,30.03,10.0,NW,3.5,-,N/A,,Overcast,310,2013-03-28 05:50:00
11:15 PM,57.2,51.8,82,30.03,10.0,Calm,Calm,-,N/A,,Overcast,0,2013-03-28 06:15:00
11:35 PM,57.2,51.8,82,30.03,10.0,WNW,3.5,-,N/A,,Overcast,290,2013-03-28 06:35:00
11:50 PM,57.2,51.8,82,30.03,10.0,WNW,3.5,-,N/A,,Overcast,300,2013-03-28 06:50:00